Wind_Speed
13 13 12 11 11 11 11 12 14 15 16 17 18 17 17 18 18 19 20 20 20 20 19 19 19 20 21 21 21 21 21 22 22 22 22 22 22 23 25 26 27 28 29 29 28 27 28 30 30 28 26 26 25 24 25 25 26 28 29 30 30 29 28 27 29 30 29 27 25 24 23 23 22 21 19 18 16 15 15 13 12 13 14 15 16
14 14 14 12 11 11 12 11 12 13 14 14 15 16 18 19 20 21 21 21 22 22 22 21 21 21 21 21 22 22 22 22 22 22 22 22 22 22 23 24 25 27 27 27 26 26 28 30 30 29 26 26 26 25 25 25 26 27 29 30 32 31 31 30 30 31 31 29 26 25 24 23 23 22 20 20 19 18 18 16 15 15 15 15 15
13 13 14 13 11 11 12 12 11 11 12 12 12 12 14 15 17 20 21 22 24 24 24 24 23 23 23 23 22 22 23 23 23 23 23 23 23 23 24 24 25 26 25 25 25 26 27 29 30 29 27 27 27 26 25 25 26 27 28 29 31 32 32 32 33 33 33 31 27 25 24 23 22 22 21 21 20 20 20 19 18 17 16 16 16
12 13 14 13 11 10 11 11 11 12 12 11 11 10 11 11 13 15 17 20 22 24 25 26 26 26 26 25 24 24 24 24 24 25 25 25 25 25 25 25 26 26 25 25 25 26 27 28 29 27 26 26 27 26 26 25 25 27 28 28 29 31 31 32 32 32 32 31 28 25 23 22 22 22 22 23 23 22 22 21 20 20 19 18 18
13 13 14 13 12 11 11 12 11 11 11 9 8 8 9 10 11 13 14 16 18 20 22 25 26 27 28 27 27 26 26 26 26 27 27 28 28 27 27 27 27 27 27 27 27 27 28 29 28 27 25 25 25 25 25 25 25 26 27 28 28 29 28 28 28 28 29 30 28 25 23 23 23 23 23 24 24 24 24 24 23 23 22 22 21
13 13 13 14 14 13 11 11 9 7 6 6 7 8 9 11 12 14 15 16 17 19 20 22 24 26 27 28 28 28 28 28 28 28 29 30 30 30 30 30 29 29 29 29 29 28 29 30 30 29 28 27 26 25 25 25 25 26 27 28 28 28 28 27 26 26 27 29 29 27 26 26 25 25 25 25 26 27 27 27 27 26 26 25 24
13 14 14 15 15 12 10 8 6 5 6 7 9 10 11 13 14 15 16 17 18 18 19 20 21 23 25 26 28 29 29 29 29 29 30 31 31 32 32 32 32 32 31 31 30 29 30 30 31 31 30 29 28 27 27 26 26 26 27 27 27 28 29 29 28 28 28 29 29 28 28 27 27 27 27 27 28 29 29 30 30 30 29 28 28
12 14 16 16 14 10 7 5 5 6 7 9 10 12 13 13 13 13 14 15 16 17 18 19 20 21 22 24 25 27 29 30 30 31 30 31 31 31 32 33 33 33 34 33 32 31 30 30 31 32 31 30 30 30 30 29 29 29 28 28 28 28 28 29 29 30 30 30 30 29 28 27 27 28 28 29 30 32 32 32 32 32 32 31 31
13 14 16 15 13 10 5 4 5 6 6 8 10 12 13 12 13 13 11 13 14 15 16 17 18 20 21 21 23 24 25 28 29 30 31 31 31 31 31 32 32 33 34 34 34 32 31 30 31 31 31 31 31 31 32 32 31 31 31 30 30 29 28 28 28 29 30 30 30 30 29 29 29 29 29 30 31 31 31 32 33 34 33 34 33
13 13 14 14 14 11 6 3 4 5 6 8 9 11 12 13 15 15 13 13 13 12 12 13 14 16 16 17 19 20 21 23 24 27 29 30 31 31 31 31 31 31 32 34 34 33 32 32 32 31 31 31 31 32 33 33 33 33 33 32 31 30 29 28 28 29 29 30 30 29 30 30 30 30 30 30 29 29 30 31 32 32 33 35 35
12 11 11 13 14 12 8 6 5 6 9 10 9 10 13 14 16 17 16 13 11 9 10 10 11 11 12 12 14 15 16 18 19 21 23 25 28 29 31 32 32 32 32 33 34 35 34 34 34 34 33 33 33 34 34 34 34 34 34 32 32 31 30 30 30 29 29 30 29 29 30 31 30 29 29 29 29 28 29 30 29 30 31 33 34
11 10 11 12 12 12 11 9 8 7 10 11 10 11 12 13 16 19 18 13 10 8 8 9 9 9 10 10 11 11 12 13 14 16 17 19 22 25 28 30 31 32 33 33 34 35 35 35 36 36 35 34 34 34 35 34 33 33 34 33 33 32 32 31 31 31 31 31 31 30 30 31 30 30 29 29 28 28 29 29 29 29 30 31 32
10 10 11 11 11 11 11 10 9 9 10 11 12 12 12 13 15 19 19 15 9 7 6 7 8 8 9 10 11 11 11 11 12 13 15 16 18 20 23 26 28 30 31 32 33 34 35 35 36 37 37 36 35 34 34 34 33 32 32 32 33 34 33 33 32 32 32 32 32 32 30 30 31 31 30 28 28 28 29 29 30 30 30 31 31
11 11 11 10 9 9 10 10 9 10 12 14 14 13 13 14 15 17 19 17 12 6 6 6 7 8 9 10 11 11 10 10 11 12 13 14 15 16 19 21 24 26 28 29 31 33 34 35 36 38 38 37 36 35 35 35 34 33 32 32 33 34 33 33 33 33 33 33 34 34 31 29 30 30 30 30 30 29 29 29 30 30 30 30 30
13 14 13 11 8 7 9 10 10 11 14 16 17 16 15 15 15 16 18 18 16 10 5 5 7 7 9 10 11 11 11 12 13 13 14 14 15 16 17 19 21 23 25 27 28 31 32 34 35 37 38 38 38 37 37 36 35 35 34 34 34 33 33 33 33 33 34 34 34 33 31 30 29 29 30 32 32 31 30 30 30 31 31 30 30
15 16 15 13 10 8 8 10 11 12 14 16 18 18 17 17 17 16 16 16 16 15 10 5 5 7 9 10 10 12 13 14 15 15 16 17 17 18 19 21 22 24 25 26 28 29 31 33 34 36 38 39 39 38 38 37 36 36 36 36 35 34 34 34 33 33 33 33 32 32 31 30 29 28 29 31 32 31 31 32 32 32 32 31 33
16 18 17 15 13 10 8 9 11 12 13 16 18 19 19 18 17 17 16 15 16 16 15 11 6 5 7 9 11 13 15 16 16 16 17 18 19 20 22 23 24 26 27 28 29 30 31 32 34 35 37 38 38 38 38 37 37 37 36 36 36 36 36 35 34 33 33 33 33 32 32 31 29 28 28 30 31 30 32 35 34 34 33 32 34
17 19 19 16 14 12 10 9 9 11 13 16 18 18 19 19 18 17 15 14 14 15 15 14 12 9 6 5 8 11 14 15 16 18 20 20 21 22 23 25 26 28 29 29 30 31 32 33 34 35 37 39 38 38 37 37 38 38 36 35 36 37 38 37 36 35 35 35 34 34 33 32 31 29 29 30 30 30 33 35 34 34 33 32 33
18 19 19 17 14 13 10 9 9 11 13 16 17 17 18 18 18 16 13 12 11 12 13 13 12 11 10 8 7 7 9 11 13 15 18 19 21 23 25 27 28 30 31 32 32 32 32 33 33 34 36 38 39 39 38 36 37 39 38 36 36 38 38 36 37 38 37 37 37 36 35 33 31 30 29 29 29 29 32 33 33 33 32 31 34
17 18 18 17 15 12 10 9 10 11 13 14 15 15 16 15 15 13 11 10 9 9 10 10 10 10 10 10 9 9 9 10 11 12 14 15 17 19 21 24 27 29 31 33 34 34 34 34 33 33 34 36 37 39 39 38 37 38 37 38 38 37 34 33 36 38 39 39 39 38 36 34 31 30 29 28 27 27 27 28 29 29 29 30 33
16 16 16 16 16 13 11 11 11 11 12 13 13 14 14 14 13 13 11 10 9 8 8 7 7 7 8 9 10 10 11 11 12 13 14 15 16 18 19 21 23 25 27 29 32 34 35 35 35 34 34 34 35 37 38 38 38 38 38 39 39 36 31 29 32 34 36 38 39 39 37 35 32 31 30 28 28 26 25 25 26 27 28 29 31
15 14 15 15 16 15 14 13 13 13 13 13 14 15 15 15 15 14 13 12 10 9 8 7 6 6 6 6 7 8 10 11 12 13 14 16 17 18 20 21 22 24 25 25 27 29 31 33 34 34 33 34 35 36 37 37 37 38 40 40 38 35 31 30 30 31 32 34 35 36 36 35 34 33 31 30 30 29 28 27 27 27 28 28 29
14 13 13 14 14 15 14 13 13 13 14 14 15 15 16 16 16 15 14 13 12 10 10 8 7 7 6 6 7 7 8 10 11 11 12 13 15 17 18 20 22 25 27 28 28 27 28 29 31 32 32 32 32 32 34 34 35 37 39 38 36 35 34 32 30 30 31 32 33 34 36 36 35 34 33 32 32 33 33 31 28 27 27 27 27
14 12 12 12 13 13 13 12 12 12 13 13 14 15 16 16 17 17 17 16 15 13 12 11 10 9 8 8 8 8 9 10 11 12 12 12 13 14 15 16 18 22 26 29 30 30 29 28 27 27 28 30 30 30 30 31 32 34 35 36 35 35 35 35 33 33 33 33 34 36 38 37 36 35 34 32 31 33 34 32 29 27 28 27 27
14 14 14 13 14 14 13 12 12 12 12 13 14 15 16 17 18 19 19 19 19 18 16 15 14 13 12 11 10 9 9 9 10 11 12 12 12 12 13 13 15 18 22 26 29 30 29 27 25 25 24 25 28 30 29 28 28 29 32 33 35 36 37 37 35 34 35 36 36 37 37 37 37 36 34 32 31 32 32 31 30 30 30 29 28
14 14 15 16 16 16 16 14 12 12 12 13 15 16 17 18 19 20 21 22 22 22 22 21 20 19 19 17 16 15 13 11 10 10 10 11 11 12 13 13 14 15 18 21 24 26 25 24 24 24 22 22 25 28 30 29 28 29 30 32 34 36 37 37 37 36 37 38 38 37 37 36 36 36 34 31 31 31 31 31 31 31 31 31 30
14 14 16 17 18 18 19 18 15 13 12 13 14 16 17 19 20 21 22 23 24 24 25 25 24 24 23 22 21 20 20 18 17 16 16 16 16 17 17 16 15 15 17 19 20 21 21 19 20 22 22 21 22 25 28 30 29 28 28 29 31 33 34 35 36 37 38 38 38 37 35 34 34 36 36 34 32 31 31 31 31 30 30 29 29
13 14 14 15 17 18 19 20 18 16 15 15 16 17 18 19 21 22 23 24 25 25 26 26 26 26 26 25 24 24 25 25 25 25 25 24 24 25 25 23 20 18 19 20 19 17 17 16 17 19 20 20 20 22 24 26 27 27 26 27 28 29 31 33 34 36 38 37 36 34 32 32 34 35 35 35 33 32 31 30 29 29 28 26 27
11 12 13 13 14 16 18 19 19 18 17 16 17 18 18 19 20 21 23 24 24 25 25 26 26 26 26 26 26 27 27 28 28 28 27 27 28 29 29 28 27 24 24 24 20 14 14 15 15 15 16 15 16 17 18 20 22 23 24 24 25 26 28 30 32 35 36 36 33 31 30 32 34 35 34 34 34 33 31 29 28 28 27 26 26
9 10 11 11 12 14 15 16 17 17 17 17 17 17 17 18 19 20 21 22 22 23 24 24 25 25 25 25 26 27 27 27 27 27 27 27 27 29 29 29 29 28 26 25 21 14 11 13 13 11 9 9 9 11 12 14 16 18 18 18 20 21 23 24 26 29 31 32 32 30 28 29 30 30 30 31 32 31 29 27 27 27 26 25 25
8 9 10 10 11 12 13 14 15 15 16 16 17 17 17 17 17 18 19 20 20 21 22 22 23 24 24 25 25 25 25 25 26 26 27 27 27 29 30 29 29 29 27 24 19 12 8 9 9 8 6 6 6 7 8 10 11 12 12 13 15 16 17 18 19 20 21 22 22 22 22 22 22 21 21 22 24 24 25 24 24 25 25 24 23
8 9 10 10 10 10 12 13 14 14 14 15 16 17 18 17 16 16 17 18 19 20 20 21 21 22 23 23 24 25 25 25 25 25 26 27 27 28 27 26 25 24 22 19 15 11 9 9 8 6 5 6 5 5 5 6 6 7 8 10 11 12 12 12 13 13 13 12 14 16 18 18 18 17 18 18 18 19 20 21 21 21 20 20 20
7 8 9 9 9 10 11 12 13 13 14 15 16 17 18 19 18 17 16 15 16 17 19 19 20 21 21 22 23 24 24 24 24 24 25 25 24 24 23 23 22 21 19 17 16 15 15 15 14 11 7 6 6 5 3 3 4 4 5 6 6 6 7 7 8 9 10 10 12 14 15 15 15 15 16 17 17 17 18 19 19 20 20 19 19
8 9 9 9 9 9 10 11 12 12 13 14 15 16 17 18 19 19 17 16 16 16 17 17 18 19 20 21 22 23 24 23 23 24 24 23 23 22 20 20 21 21 21 21 22 21 21 20 20 18 16 12 10 8 6 4 3 2 2 2 2 3 4 6 7 8 9 9 11 12 13 13 13 14 15 15 16 16 16 15 15 16 17 18 19
8 9 10 9 9 9 10 10 11 11 11 12 13 15 16 17 18 19 19 18 18 18 19 18 18 18 18 19 21 22 23 23 22 23 23 23 23 21 20 20 22 22 23 24 24 24 23 23 22 22 21 19 18 16 15 12 10 7 5 4 3 3 3 4 5 5 7 8 8 9 10 11 11 11 12 12 12 12 11 11 12 14 15 16 18
9 9 10 9 9 10 10 10 10 10 11 10 11 13 15 16 17 18 19 19 19 19 20 20 19 18 18 18 19 20 21 21 22 22 22 23 23 23 23 25 25 25 24 25 24 24 23 23 22 22 21 21 21 20 20 19 18 16 13 10 8 7 6 5 4 4 4 5 5 6 7 8 9 10 11 11 12 13 13 13 13 15 15 15 16
9 9 9 8 9 10 11 10 9 10 10 9 9 11 13 15 16 18 19 20 20 20 21 20 20 20 19 19 19 19 20 20 20 20 21 21 22 23 25 26 26 25 24 24 24 23 23 23 22 22 21 20 20 19 19 19 19 19 19 17 15 14 12 11 9 8 7 7 7 7 8 8 9 9 10 12 13 14 15 15 16 16 17 17 18
8 8 8 8 8 10 11 10 9 9 9 9 8 10 12 14 15 17 18 19 19 20 20 20 20 20 20 20 20 20 19 18 18 18 19 20 21 23 23 24 24 24 24 23 22 22 23 22 22 22 21 21 20 20 19 18 18 18 18 18 17 17 16 14 14 13 11 10 10 9 9 10 10 9 9 10 11 12 13 14 15 16 17 18 19
8 7 7 7 8 9 9 8 8 8 9 8 8 9 10 12 13 15 16 17 17 18 19 19 19 19 20 20 20 20 20 19 19 19 20 20 21 21 21 21 21 21 21 21 21 21 21 21 21 21 20 20 20 20 20 20 19 18 18 17 16 16 15 14 14 14 13 12 11 11 10 10 10 10 9 9 9 9 10 11 12 12 13 13 14
7 6 6 6 6 7 7 5 6 7 8 8 8 9 9 10 11 12 14 15 16 17 17 18 18 19 19 19 20 21 21 21 21 20 20 19 19 19 19 19 19 19 19 19 19 19 19 19 18 18 19 19 19 19 19 19 19 19 19 18 17 16 16 15 14 14 13 12 12 11 11 10 10 9 9 8 8 8 8 8 9 9 9 9 10
6 5 5 5 5 5 5 5 5 6 7 7 8 8 8 9 11 12 13 14 15 16 17 18 18 19 19 19 20 20 21 21 21 20 20 19 18 17 17 17 17 16 16 16 16 16 16 16 16 16 16 16 17 17 17 17 17 17 17 17 17 17 16 16 15 14 13 13 12 12 11 11 10 10 9 9 8 8 8 7 7 7 7 8 8
5 5 4 3 3 3 4 4 5 5 6 7 8 8 8 9 10 12 13 14 15 16 17 17 18 18 19 19 19 19 19 19 19 19 19 19 18 17 16 15 15 15 14 14 14 14 14 15 15 15 15 15 16 16 16 16 16 17 17 17 17 16 16 16 15 14 13 13 12 11 10 10 9 9 9 9 8 8 8 7 7 7 7 7 7
6 5 4 3 2 2 2 3 4 5 6 7 7 8 8 9 10 11 12 13 14 15 16 16 17 17 18 18 18 18 19 19 19 19 18 18 18 17 17 16 15 14 13 13 13 14 14 15 15 16 16 17 17 17 18 18 17 17 17 17 16 16 16 15 15 14 13 12 11 11 10 9 9 9 9 8 7 7 7 7 7 7 7 8 8
7 6 5 4 3 2 2 3 4 5 6 7 8 9 9 10 10 10 11 12 13 13 14 15 15 16 17 17 18 18 18 18 18 18 18 18 18 18 18 18 17 16 15 14 14 14 14 15 16 17 18 19 19 19 19 19 19 18 17 17 16 16 16 15 15 14 14 12 11 11 10 9 9 9 9 9 8 8 8 8 8 9 9 8 8
8 8 6 5 3 3 3 3 4 5 6 8 9 10 11 11 12 12 12 11 11 12 12 13 14 15 16 16 17 18 18 18 18 18 18 18 18 19 19 19 19 19 18 17 17 16 16 16 16 16 17 18 19 20 20 19 19 18 18 17 16 16 16 15 15 15 14 13 12 11 10 9 9 9 9 9 9 10 10 10 10 10 10 10 10
9 8 7 5 4 3 3 3 4 5 6 8 9 11 12 13 14 14 14 14 13 12 12 11 12 13 14 15 16 17 18 18 18 18 18 18 18 19 19 20 19 19 19 19 19 19 19 18 18 17 16 17 18 19 19 18 18 18 18 17 17 16 16 16 15 14 14 14 12 11 10 10 9 9 9 9 10 10 10 11 11 11 11 12 12
10 9 8 7 6 5 4 4 5 6 7 7 9 12 14 15 16 16 16 16 15 14 13 12 12 12 13 14 15 16 17 18 18 18 18 18 19 19 19 20 20 20 20 20 20 20 20 20 19 19 18 17 18 19 18 17 17 18 18 17 17 17 16 16 16 15 14 13 12 11 11 10 9 9 9 9 9 9 10 11 11 11 11 12 12
12 11 10 9 8 8 8 7 8 9 9 9 9 11 13 15 17 17 18 18 17 17 16 15 14 13 13 13 14 15 16 18 19 19 19 19 19 20 20 20 20 19 19 20 20 20 20 20 20 20 19 19 19 19 19 18 17 17 17 17 17 17 16 16 15 15 15 13 12 11 10 10 9 9 9 9 9 9 9 10 11 11 11 11 12
14 13 13 12 12 11 11 11 11 12 12 12 12 12 13 14 16 17 18 19 19 19 19 19 18 18 17 16 16 15 16 17 18 19 19 19 19 20 21 21 20 20 20 20 20 20 20 20 20 20 20 20 19 20 20 19 18 17 16 16 16 17 16 16 15 15 14 13 13 12 11 10 10 9 8 8 8 9 9 9 10 10 10 10 11
16 16 15 15 14 14 14 14 14 14 14 14 14 14 14 15 15 16 17 18 20 20 21 22 22 23 23 22 21 20 19 18 18 18 19 19 19 20 21 21 21 21 21 21 21 21 21 21 20 20 20 20 19 19 20 20 19 18 17 16 15 15 15 15 15 15 14 13 13 13 12 11 10 9 8 7 7 8 9 9 9 10 10 10 10
18 17 17 17 16 16 15 15 14 14 14 15 15 15 15 15 15 16 18 19 20 21 22 22 23 24 24 25 25 25 25 24 23 22 21 20 20 20 21 22 22 21 21 21 21 21 22 22 21 21 20 20 19 19 20 19 19 18 18 17 16 15 14 14 14 14 14 13 13 13 13 12 12 10 8 7 6 7 8 8 9 9 10 10 10
Wind_Direction
322 322 319 312 304 298 291 283 280 280 276 270 268 267 264 261 259 258 256 255 254 253 251 249 248 248 248 247 247 244 241 238 237 238 241 242 241 239 238 238 238 239 240 241 242 243 244 245 247 250 252 251 250 252 255 255 253 249 246 245 245 246 247 248 253 258 261 263 269 276 281 286 288 285 280 279 279 279 281 282 279 272 266 263 260
320 320 321 315 302 295 293 289 285 286 287 284 279 273 269 266 264 262 261 259 258 257 255 252 250 249 249 248 247 248 247 244 241 240 240 242 243 242 241 241 241 240 240 241 241 242 244 246 247 248 249 249 249 251 254 256 254 251 247 247 247 246 246 246 249 253 256 258 262 269 274 277 281 283 280 279 282 283 281 282 283 280 275 270 266
322 321 323 320 307 296 293 291 289 289 291 292 292 288 280 274 270 267 266 264 262 260 258 256 252 250 249 248 247 247 248 248 247 246 245 245 245 244 244 244 244 244 244 242 243 244 245 247 248 249 250 250 249 249 252 255 255 251 248 248 250 251 250 249 250 252 254 257 258 260 264 270 275 279 280 281 282 282 280 280 281 279 277 273 270
332 328 327 325 316 301 293 290 287 287 289 289 290 291 288 284 279 274 271 269 266 264 262 259 256 252 249 247 247 247 247 247 247 248 249 250 250 249 248 248 248 249 249 247 245 245 247 248 250 252 254 254 252 250 251 254 255 253 249 249 251 253 253 252 252 253 255 257 255 253 257 264 269 273 276 277 278 279 280 278 277 277 277 275 271
341 333 328 326 320 309 299 294 292 291 289 289 291 294 297 296 293 289 282 277 272 268 265 262 259 256 251 248 246 246 246 247 247 247 249 251 252 253 252 251 250 251 251 251 249 248 248 248 249 253 256 256 254 253 253 254 254 255 253 251 252 252 252 251 251 252 254 256 255 253 254 258 263 266 268 272 276 278 279 277 276 277 276 274 273
341 337 330 324 319 315 309 304 305 305 300 302 303 301 301 299 295 292 286 280 276 272 268 266 263 260 256 252 248 246 245 247 247 247 247 248 249 251 252 252 251 251 252 253 253 252 250 247 247 252 255 255 253 253 255 256 256 256 255 255 254 254 253 252 251 252 254 257 258 257 255 256 259 262 264 267 272 274 277 278 276 274 274 274 275
339 338 333 328 324 321 316 315 321 319 311 310 309 308 308 308 305 300 291 281 275 272 269 266 263 262 260 256 252 249 246 246 247 247 247 247 247 247 248 249 249 249 251 252 253 252 250 247 245 248 252 253 252 253 254 256 259 259 258 258 257 256 256 255 254 255 256 258 260 259 258 258 258 260 262 265 267 269 270 272 272 273 275 276 278
340 339 336 335 336 332 327 333 335 325 319 319 323 327 328 329 329 325 315 301 288 279 273 267 263 260 259 258 256 253 250 247 246 247 248 248 248 247 247 247 247 248 250 252 253 253 251 248 246 246 247 248 250 251 253 255 258 260 260 260 261 259 257 256 256 255 256 257 260 261 262 262 261 260 260 261 261 262 264 267 271 275 278 280 281
346 347 345 346 346 340 340 351 334 326 334 338 341 345 344 336 328 324 320 312 303 292 282 274 267 261 257 257 257 256 255 253 251 250 251 251 253 252 251 250 249 249 249 251 253 254 254 253 251 250 248 247 247 248 250 252 255 257 259 261 263 262 259 258 257 257 256 256 257 259 261 262 261 261 261 260 260 263 267 270 273 276 278 279 280
354 355 356 355 349 340 334 340 340 340 338 339 344 349 348 340 328 321 315 307 302 297 289 282 275 267 260 256 256 256 258 258 258 257 256 256 256 257 257 257 256 254 253 252 253 254 253 253 254 253 252 251 250 249 249 250 251 253 256 258 261 262 261 260 259 259 259 258 258 259 260 261 261 261 263 265 266 269 270 271 273 276 276 276 277
359 1 4 359 350 341 331 327 350 348 329 333 347 343 341 345 342 338 332 320 307 299 292 284 275 269 262 257 255 257 258 260 261 261 259 258 258 258 259 260 260 260 258 257 256 256 255 254 253 253 252 251 251 251 250 250 251 251 252 253 256 259 260 260 259 260 261 261 261 260 261 262 262 263 266 269 270 270 270 272 273 274 274 274 276
9 14 19 12 357 346 332 328 349 350 333 342 356 344 340 350 351 349 350 341 320 306 302 297 285 271 262 258 257 259 261 262 261 261 259 257 256 256 256 257 258 259 259 260 260 260 260 259 257 256 254 252 251 251 250 251 251 251 250 250 252 255 258 258 259 260 261 261 262 262 262 264 266 267 267 268 270 272 272 273 273 273 274 275 276
15 20 24 22 12 358 342 331 338 340 333 337 341 338 340 348 351 354 358 356 335 304 297 301 294 280 268 263 260 259 261 261 261 260 259 257 256 256 256 256 256 256 256 257 259 260 261 262 261 260 259 257 255 254 253 253 253 252 249 249 249 251 253 254 256 259 261 261 260 260 261 264 267 269 268 269 272 273 273 273 273 273 274 275 278
12 17 17 17 10 359 351 344 339 332 328 330 334 339 344 348 354 356 358 4 2 329 290 279 280 279 273 268 264 262 261 258 254 252 252 251 251 253 255 257 257 257 256 256 257 257 258 259 260 261 261 260 259 258 257 256 255 253 251 248 248 248 249 251 253 255 258 259 259 260 261 264 268 270 270 270 269 269 270 272 273 275 277 280 282
9 13 12 12 6 351 347 353 351 339 336 340 342 345 348 352 359 359 358 6 13 4 328 277 266 269 270 269 269 267 263 255 249 245 243 242 241 243 246 250 253 255 256 256 256 257 257 257 257 258 259 260 259 258 257 258 258 257 254 252 250 249 248 249 250 252 255 258 260 262 263 265 267 270 271 270 269 268 271 275 276 278 279 280 279
11 12 9 10 12 2 347 347 346 341 344 346 344 348 356 360 2 0 359 4 10 13 10 335 280 262 261 263 265 266 263 260 256 253 250 247 246 246 247 248 250 252 253 255 256 256 256 256 256 256 257 258 258 257 256 256 257 258 258 257 255 253 250 248 248 251 253 255 258 260 262 262 263 266 269 270 269 270 272 273 273 272 272 273 274
15 15 13 13 18 16 3 351 346 346 349 347 347 355 4 6 4 2 1 1 4 9 14 13 356 305 270 259 257 260 263 264 265 263 260 257 254 253 252 253 254 255 256 258 259 259 259 259 258 257 257 256 257 257 256 256 256 257 257 259 259 259 256 252 250 250 250 252 254 256 258 259 258 259 262 265 266 267 267 267 266 266 266 268 270
17 18 16 16 20 23 18 7 359 356 355 356 360 6 9 6 4 4 2 1 1 2 7 12 12 2 340 296 270 265 266 267 268 268 267 266 264 263 262 261 261 262 262 262 262 263 263 263 262 261 259 258 257 256 255 254 255 256 257 257 258 258 258 258 257 254 252 251 253 254 255 256 256 256 258 260 261 261 261 263 264 264 265 266 269
17 18 16 18 24 26 22 15 10 7 7 10 12 11 10 7 5 5 3 1 3 3 3 6 6 5 4 357 334 309 296 289 284 280 277 276 274 273 272 270 269 269 269 268 267 266 265 265 264 264 263 262 260 259 257 255 253 254 256 258 258 257 257 258 259 259 258 256 256 256 257 257 258 259 259 259 260 260 260 261 262 263 266 268 270
16 17 17 21 27 29 24 18 15 16 17 19 17 14 13 13 11 10 10 8 8 7 4 3 0 358 358 356 351 341 329 320 314 307 301 296 293 289 286 282 280 277 274 273 272 270 269 267 266 265 264 264 263 261 260 258 255 253 253 254 256 257 258 258 258 260 261 261 261 260 260 259 259 261 260 260 259 259 259 260 260 261 263 264 264
16 18 19 24 26 28 31 29 25 27 27 25 26 27 28 28 28 28 25 23 23 21 16 12 6 0 356 350 343 337 329 323 319 315 311 308 306 305 302 299 294 289 284 279 275 274 273 272 271 268 265 263 263 261 260 259 258 255 253 252 254 257 260 260 257 258 260 261 263 263 262 259 259 259 259 259 259 258 256 255 255 256 257 258 260
16 19 21 26 27 30 37 40 38 39 37 33 34 36 35 34 34 34 34 34 34 32 30 26 20 13 6 357 346 337 329 322 317 313 311 310 309 309 309 308 304 300 297 293 286 280 276 274 274 274 271 266 263 261 259 258 257 256 254 253 253 257 260 260 258 258 258 260 262 264 263 260 258 257 257 258 258 259 258 256 255 255 256 257 259
17 20 23 28 30 31 36 39 38 38 36 32 31 30 28 28 27 27 28 27 24 23 21 17 13 6 359 353 345 336 328 322 317 312 309 308 309 310 310 308 304 301 299 300 298 291 283 276 274 275 275 273 269 264 260 257 256 255 254 252 251 253 256 258 258 259 260 261 263 264 263 261 258 256 256 258 259 260 261 261 260 259 259 258 257
20 22 23 25 28 28 28 28 29 31 29 27 25 23 21 21 22 22 23 22 20 19 16 12 9 5 357 351 343 333 325 319 314 310 307 305 307 310 311 309 305 301 298 297 296 293 289 285 281 277 275 273 270 267 262 257 256 255 253 251 249 249 250 253 256 259 262 263 263 264 265 264 260 255 253 256 259 260 261 263 265 265 265 262 257
26 30 32 32 32 30 27 23 21 22 23 22 21 21 20 18 20 21 23 25 26 27 27 26 24 22 19 14 8 359 346 329 316 309 306 303 306 312 317 318 315 309 304 300 297 293 290 288 286 283 278 273 269 265 261 258 255 253 251 250 249 248 248 250 253 257 260 261 263 265 266 265 263 260 257 256 257 257 259 263 267 269 269 266 261
27 35 38 39 38 35 32 29 23 23 25 24 21 20 19 19 19 21 23 27 29 30 32 32 31 31 31 28 26 24 19 9 357 345 334 327 326 327 328 329 328 323 316 311 305 300 294 288 286 286 283 277 270 265 260 258 255 251 248 248 249 249 249 251 253 255 257 259 262 265 267 267 267 265 261 258 254 254 258 264 268 270 270 269 266
24 32 35 36 37 35 34 32 30 29 30 30 27 24 22 21 21 22 24 26 28 30 30 29 29 29 28 28 29 28 26 22 19 13 7 2 358 354 349 344 340 335 330 325 317 310 304 295 290 290 290 283 275 267 262 260 258 256 252 251 251 251 251 252 253 254 255 256 260 265 269 271 270 267 264 260 257 257 262 267 269 268 268 268 268
20 25 26 28 31 33 32 32 34 35 32 29 29 28 26 25 23 23 23 23 24 26 27 26 26 24 22 22 24 26 25 22 18 14 10 5 2 360 357 353 349 345 343 341 332 316 305 298 292 294 296 292 283 274 267 262 261 262 261 260 258 256 254 252 252 253 254 256 259 265 270 271 269 267 265 263 259 258 261 264 263 261 261 261 262
18 19 18 20 24 28 30 30 32 35 35 31 29 28 27 26 25 24 24 23 22 23 24 25 25 23 21 19 19 19 20 18 15 11 7 4 2 0 358 357 356 355 354 354 347 324 300 298 300 302 302 298 290 282 276 271 269 268 268 269 269 266 261 256 253 251 252 254 258 265 269 269 266 263 263 262 257 254 255 256 255 253 254 256 259
9 11 13 15 17 21 27 28 28 31 32 33 33 32 28 26 25 25 25 24 23 23 24 24 25 24 24 23 20 17 16 14 12 11 8 6 4 3 2 2 2 1 0 357 350 329 302 302 310 312 307 296 286 283 280 278 277 275 273 271 270 269 267 263 258 254 253 255 260 265 269 269 265 262 263 263 258 253 251 248 245 246 247 248 251
350 355 3 12 15 16 20 23 25 26 26 27 29 32 31 28 25 24 24 23 23 25 26 26 26 25 26 26 25 22 18 15 13 12 11 9 8 7 6 6 5 3 1 356 347 330 307 306 315 319 309 289 280 281 280 279 278 276 272 267 265 266 266 264 263 261 258 256 257 259 262 263 260 256 255 253 249 245 244 242 240 243 246 248 250
332 339 347 0 13 15 13 16 20 22 22 20 20 22 26 29 28 27 24 22 21 23 25 26 27 27 27 29 29 26 22 19 17 16 14 12 11 10 9 10 9 6 0 355 353 351 344 339 339 335 315 304 309 312 301 290 281 268 259 259 262 265 266 267 267 263 252 242 242 246 249 249 244 237 233 232 231 233 237 239 238 241 246 251 256
317 326 333 345 1 6 6 9 13 15 17 16 15 14 17 21 25 28 29 27 24 22 22 23 25 26 27 29 31 29 24 21 21 21 19 17 15 13 13 17 20 19 15 16 23 27 21 13 9 5 352 340 342 341 320 294 278 257 243 243 249 252 254 257 260 256 243 230 231 237 239 236 231 229 230 232 234 236 238 241 241 243 245 249 253
312 316 322 332 344 353 357 1 7 10 11 10 10 10 12 16 21 23 26 29 30 28 25 22 23 24 26 28 31 30 26 22 22 24 24 24 22 19 19 24 28 28 29 34 37 39 37 33 27 22 16 10 6 4 2 359 343 310 283 270 270 264 253 247 243 236 230 227 227 230 234 236 237 240 243 245 246 244 243 243 243 244 247 250 252
313 313 317 324 332 340 346 350 357 5 5 3 4 6 8 13 17 19 22 24 25 26 26 24 23 23 24 26 30 31 27 23 22 23 24 26 26 24 24 29 31 29 32 37 37 37 38 38 37 34 29 24 20 17 16 16 16 12 3 341 326 322 298 266 248 234 231 233 233 232 235 237 239 242 246 249 251 250 247 246 248 253 257 259 259
316 312 312 316 321 327 335 341 349 355 358 359 1 2 6 11 14 15 17 19 19 20 22 23 24 23 22 24 28 31 29 25 23 23 23 23 23 23 26 32 33 32 33 36 37 36 36 35 34 35 33 30 27 24 20 19 19 19 19 14 3 355 345 328 311 297 280 269 261 256 253 251 252 255 259 261 264 266 267 268 271 271 271 271 269
320 311 306 309 314 321 330 338 343 347 351 356 1 3 6 10 12 13 14 14 14 15 15 18 21 22 21 21 23 27 29 27 24 24 24 23 23 24 28 31 33 33 35 35 35 35 35 34 32 31 30 29 27 25 22 20 18 17 18 17 14 11 6 360 353 347 339 326 313 303 297 291 285 281 279 278 277 277 277 278 279 277 276 274 274
325 315 306 307 312 319 328 336 342 345 348 353 360 2 3 7 10 12 12 12 13 13 13 13 15 17 19 19 19 20 23 23 23 24 26 25 24 26 28 30 30 32 34 35 35 35 34 34 32 30 29 27 26 25 24 23 21 18 16 14 12 11 10 6 3 359 355 349 340 331 326 321 316 310 303 296 290 287 286 285 284 285 284 283 282
322 316 308 308 313 317 323 335 349 352 350 351 355 358 360 4 8 11 12 12 13 13 12 12 12 13 15 16 16 15 16 16 17 20 23 23 23 25 26 27 28 30 32 33 34 35 35 35 34 32 31 29 28 26 25 24 22 21 19 16 12 9 6 3 2 360 356 353 350 347 343 338 333 328 323 316 309 303 300 298 296 295 294 292 290
315 307 300 303 311 313 317 334 359 3 358 354 353 352 355 1 5 8 11 12 12 11 11 10 11 11 12 13 13 13 12 12 12 13 15 17 19 21 21 22 24 25 27 29 30 31 33 34 34 32 31 30 29 27 25 24 22 20 18 16 14 11 9 6 3 360 356 353 351 349 346 343 340 337 333 329 324 319 315 313 309 307 306 304 301
298 292 287 289 297 306 318 337 357 6 7 3 357 353 353 357 1 5 8 9 9 9 8 6 6 7 9 10 11 10 9 9 8 7 6 8 10 11 14 16 17 18 19 21 22 23 25 25 25 25 24 23 21 20 18 17 16 14 13 12 10 9 8 6 4 2 1 359 355 350 347 344 342 340 337 334 334 332 329 326 324 322 321 320 317
279 272 268 274 283 298 319 336 350 1 6 6 5 2 359 357 357 360 3 6 7 7 7 5 3 3 3 5 6 6 5 4 4 3 1 1 0 1 3 4 6 7 8 8 9 9 8 7 7 7 6 4 3 3 2 0 360 359 359 359 359 359 359 359 358 359 1 2 359 355 353 351 348 345 340 336 334 332 331 331 331 331 332 333 332
260 254 245 248 267 291 313 327 340 350 354 356 358 358 356 355 354 355 357 0 2 2 4 4 3 1 359 358 358 359 359 359 358 358 357 356 355 355 354 353 353 353 352 351 351 351 350 349 347 346 345 344 344 344 343 343 343 344 344 345 345 346 346 347 348 349 351 355 357 356 357 359 0 358 353 349 348 347 347 346 346 344 344 345 344
246 242 229 224 234 253 282 308 323 332 336 339 341 342 341 341 342 343 345 349 351 353 355 358 359 360 0 359 357 356 356 355 353 352 351 350 350 350 348 347 345 343 341 339 336 334 333 333 332 332 331 330 331 331 332 333 332 332 333 334 334 335 336 337 339 339 339 341 345 349 352 355 358 0 1 2 3 5 4 3 3 3 0 0 359
239 235 226 220 226 241 262 291 309 319 325 328 331 332 330 327 326 327 328 331 335 338 341 345 349 352 355 356 356 356 355 354 353 351 349 347 346 345 343 342 341 340 339 338 334 331 328 326 325 324 323 323 323 325 327 328 328 327 327 327 327 327 328 329 331 333 333 333 335 340 344 345 348 353 359 3 6 8 8 8 8 8 7 8 10
230 229 226 223 226 239 261 285 303 315 323 327 331 332 329 322 317 314 313 314 318 320 323 328 334 338 343 346 348 349 350 351 351 351 350 348 346 343 340 338 337 336 336 337 336 334 333 330 329 328 325 322 321 322 325 327 327 326 324 323 323 322 323 323 324 325 326 326 327 330 334 338 341 344 350 356 1 4 5 5 5 7 7 8 11
225 224 226 230 236 245 258 276 291 300 308 318 327 332 331 324 316 309 304 304 306 307 308 312 317 322 328 332 334 336 338 340 342 344 345 345 345 343 340 337 335 333 333 334 334 333 332 331 330 330 328 324 322 321 323 325 326 324 323 321 320 319 318 319 319 319 318 319 321 324 327 331 335 338 342 348 353 358 1 2 2 3 4 5 6
224 226 230 236 242 250 259 270 280 285 289 296 306 316 320 319 315 308 302 299 299 298 298 300 303 306 311 315 319 323 325 326 328 332 334 335 337 338 337 336 334 331 330 330 331 331 330 329 328 328 326 324 321 319 320 322 323 322 321 320 319 317 316 315 314 313 313 314 316 318 321 324 328 331 336 342 346 350 357 0 0 1 3 2 0
224 229 235 239 243 251 259 267 273 277 280 283 289 297 304 309 311 309 306 304 302 300 298 297 298 299 299 300 301 305 308 312 316 320 322 324 326 328 329 330 331 329 326 326 326 326 327 326 325 324 323 321 319 317 317 318 318 318 318 318 317 316 315 313 312 310 310 310 312 314 315 319 323 326 330 337 342 345 350 354 356 358 1 0 357
228 231 234 237 242 250 257 262 266 271 276 280 284 291 299 304 308 311 312 312 310 308 305 302 302 301 301 300 299 298 298 298 301 305 309 312 316 318 320 322 323 323 323 322 321 321 322 323 322 321 320 318 316 314 313 314 315 315 315 315 315 313 312 311 310 309 308 309 311 311 311 313 314 316 321 330 337 340 342 345 348 351 353 354 353
234 236 236 239 244 248 251 254 260 267 273 278 282 288 295 301 306 312 315 315 314 311 308 306 303 302 302 301 301 300 299 298 297 297 298 300 303 307 310 313 314 316 317 317 317 317 318 318 318 318 316 314 312 311 310 309 310 310 309 310 310 310 308 307 306 306 306 308 310 310 309 308 307 306 310 319 328 332 334 335 338 342 344 344 346
Height
1496 1495 1494 1493 1492 1492 1491 1491 1490 1490 1490 1490 1491 1491 1492 1493 1493 1494 1495 1496 1497 1498 1499 1500 1500 1501 1503 1504 1505 1506 1507 1509 1510 1511 1512 1513 1515 1516 1516 1517 1519 1520 1522 1523 1524 1525 1526 1527 1529 1530 1532 1533 1534 1535 1536 1537 1538 1539 1541 1542 1543 1543 1544 1544 1543 1542 1544 1546 1547 1548 1550 1550 1551 1552 1553 1554 1554 1555 1556 1557 1557 1557 1557 1557 1558
1495 1494 1493 1492 1491 1491 1490 1490 1489 1489 1489 1488 1488 1489 1489 1490 1490 1491 1492 1493 1494 1495 1496 1497 1498 1499 1500 1501 1502 1504 1505 1506 1507 1508 1510 1511 1512 1513 1514 1515 1516 1517 1518 1519 1521 1522 1523 1524 1526 1528 1529 1530 1531 1532 1533 1534 1535 1536 1537 1538 1539 1540 1541 1541 1540 1539 1540 1542 1544 1545 1546 1547 1548 1549 1550 1551 1552 1553 1554 1555 1555 1555 1555 1556 1556
1494 1493 1492 1491 1490 1489 1489 1489 1488 1488 1487 1487 1487 1487 1487 1487 1488 1488 1489 1489 1490 1491 1492 1494 1495 1497 1498 1498 1500 1501 1502 1504 1505 1506 1507 1508 1509 1510 1511 1512 1513 1515 1515 1516 1517 1519 1520 1521 1523 1525 1526 1527 1528 1529 1530 1531 1532 1533 1533 1535 1536 1537 1538 1539 1538 1537 1537 1538 1540 1541 1542 1543 1545 1546 1547 1548 1549 1550 1551 1552 1552 1553 1553 1553 1554
1492 1491 1491 1490 1489 1488 1487 1487 1487 1486 1486 1486 1485 1485 1485 1485 1485 1485 1486 1486 1487 1488 1489 1490 1492 1494 1495 1496 1497 1498 1500 1501 1502 1503 1504 1505 1505 1506 1508 1509 1510 1511 1512 1513 1515 1516 1517 1518 1520 1522 1523 1523 1524 1526 1527 1528 1529 1530 1530 1532 1533 1534 1535 1536 1536 1536 1535 1536 1537 1538 1538 1540 1541 1543 1544 1545 1546 1547 1548 1549 1549 1550 1551 1551 1551
1491 1490 1489 1488 1487 1487 1486 1486 1485 1485 1485 1484 1484 1484 1484 1484 1484 1484 1484 1484 1485 1485 1486 1487 1488 1490 1491 1492 1494 1495 1497 1498 1499 1500 1501 1501 1502 1503 1504 1505 1506 1507 1508 1510 1512 1513 1514 1515 1517 1518 1519 1520 1521 1522 1524 1525 1526 1527 1528 1529 1530 1531 1532 1533 1533 1534 1534 1533 1534 1535 1535 1536 1537 1539 1541 1542 1543 1544 1544 1545 1546 1547 1547 1548 1549
1490 1489 1488 1487 1486 1485 1485 1484 1484 1483 1484 1483 1483 1483 1483 1483 1482 1482 1482 1482 1482 1482 1483 1484 1485 1486 1487 1488 1490 1491 1493 1494 1495 1496 1497 1498 1499 1500 1501 1502 1503 1504 1505 1507 1509 1510 1511 1512 1514 1515 1516 1517 1517 1519 1520 1522 1523 1524 1525 1526 1527 1528 1529 1529 1530 1530 1530 1530 1531 1532 1532 1532 1534 1535 1537 1538 1539 1540 1541 1541 1542 1543 1544 1545 1546
1490 1488 1487 1486 1484 1484 1483 1483 1483 1483 1483 1483 1482 1482 1482 1481 1481 1480 1479 1479 1479 1479 1480 1480 1481 1482 1482 1484 1485 1487 1488 1490 1491 1493 1494 1495 1496 1497 1498 1499 1500 1501 1503 1504 1505 1507 1508 1510 1511 1511 1512 1513 1514 1516 1517 1518 1520 1521 1522 1524 1525 1525 1526 1526 1526 1526 1527 1527 1527 1528 1528 1529 1530 1531 1533 1535 1535 1536 1536 1537 1537 1539 1540 1541 1543
1489 1488 1486 1485 1484 1483 1483 1483 1482 1482 1482 1482 1481 1481 1480 1480 1479 1478 1477 1477 1476 1476 1476 1477 1477 1478 1479 1480 1481 1483 1484 1486 1487 1489 1490 1491 1493 1494 1495 1496 1497 1498 1499 1500 1502 1503 1505 1507 1508 1508 1509 1510 1511 1512 1513 1515 1516 1517 1518 1520 1521 1522 1522 1523 1523 1523 1523 1523 1524 1524 1525 1525 1526 1527 1529 1530 1530 1530 1531 1532 1533 1535 1536 1537 1538
1489 1487 1486 1485 1484 1483 1483 1483 1482 1482 1482 1481 1481 1480 1479 1478 1478 1477 1476 1475 1474 1474 1473 1473 1474 1475 1476 1477 1478 1479 1480 1482 1484 1486 1487 1488 1489 1490 1491 1492 1493 1494 1495 1496 1498 1499 1501 1502 1504 1505 1506 1507 1508 1509 1510 1511 1512 1513 1514 1516 1518 1518 1519 1519 1519 1519 1519 1519 1520 1521 1521 1521 1522 1523 1524 1525 1526 1527 1528 1529 1529 1531 1532 1533 1534
1488 1487 1486 1485 1484 1483 1483 1483 1482 1482 1482 1481 1480 1480 1479 1478 1477 1475 1474 1473 1472 1471 1471 1471 1471 1472 1473 1474 1475 1476 1478 1479 1480 1482 1484 1485 1486 1487 1487 1488 1489 1490 1491 1492 1493 1495 1497 1498 1499 1500 1501 1502 1504 1505 1506 1507 1508 1509 1510 1512 1513 1514 1514 1515 1515 1515 1516 1516 1516 1517 1517 1516 1518 1519 1520 1521 1523 1525 1525 1525 1526 1527 1528 1528 1529
1488 1487 1486 1485 1484 1484 1483 1483 1482 1482 1481 1480 1480 1479 1478 1477 1476 1474 1472 1471 1470 1470 1469 1469 1469 1470 1471 1472 1473 1474 1475 1476 1477 1479 1480 1481 1482 1483 1484 1485 1486 1487 1488 1489 1490 1491 1492 1494 1495 1496 1497 1498 1499 1500 1502 1503 1504 1505 1506 1508 1509 1509 1510 1511 1511 1511 1512 1512 1512 1512 1512 1512 1513 1516 1517 1518 1520 1521 1521 1522 1522 1523 1523 1523 1524
1488 1486 1485 1484 1484 1483 1483 1482 1482 1481 1481 1480 1479 1478 1478 1477 1475 1473 1471 1469 1469 1468 1468 1468 1468 1469 1469 1470 1471 1472 1473 1474 1475 1475 1476 1477 1479 1479 1480 1481 1482 1483 1484 1485 1486 1487 1488 1489 1490 1491 1492 1494 1495 1496 1497 1498 1500 1501 1502 1503 1504 1505 1505 1506 1506 1507 1508 1508 1508 1508 1507 1507 1509 1512 1514 1515 1517 1518 1518 1518 1519 1519 1519 1519 1519
1488 1487 1485 1484 1483 1483 1482 1482 1481 1481 1480 1479 1478 1478 1477 1476 1475 1473 1471 1469 1468 1467 1467 1468 1468 1468 1468 1469 1469 1470 1471 1472 1472 1473 1473 1474 1475 1476 1477 1478 1478 1479 1480 1481 1482 1483 1484 1485 1486 1486 1488 1489 1491 1492 1493 1494 1495 1496 1497 1498 1499 1500 1500 1501 1502 1502 1503 1503 1503 1503 1503 1504 1505 1507 1509 1511 1514 1515 1515 1515 1515 1515 1516 1516 1516
1488 1487 1485 1484 1483 1483 1482 1482 1481 1480 1479 1478 1477 1476 1475 1475 1474 1472 1470 1468 1467 1466 1466 1466 1467 1467 1467 1468 1468 1469 1470 1470 1470 1470 1470 1471 1472 1473 1473 1474 1475 1476 1477 1478 1478 1479 1480 1481 1481 1482 1483 1485 1486 1488 1489 1490 1491 1492 1493 1493 1494 1495 1495 1495 1496 1497 1498 1498 1498 1498 1500 1501 1502 1503 1505 1507 1509 1510 1511 1511 1512 1512 1513 1513 1514
1489 1487 1485 1484 1483 1483 1482 1481 1481 1480 1479 1478 1477 1475 1474 1473 1473 1472 1470 1469 1467 1466 1465 1465 1465 1466 1466 1467 1467 1468 1468 1467 1467 1467 1467 1468 1468 1469 1470 1471 1471 1472 1473 1474 1474 1475 1476 1476 1477 1477 1479 1480 1481 1483 1485 1486 1487 1488 1488 1488 1489 1489 1490 1490 1491 1492 1493 1493 1493 1494 1496 1497 1498 1500 1501 1502 1503 1505 1506 1507 1508 1509 1509 1509 1510
1489 1487 1485 1484 1482 1482 1482 1481 1480 1480 1479 1478 1477 1475 1474 1473 1472 1471 1470 1469 1468 1466 1465 1465 1465 1465 1465 1466 1466 1466 1466 1465 1465 1466 1466 1466 1467 1467 1467 1467 1468 1468 1469 1470 1470 1471 1471 1472 1472 1473 1474 1475 1477 1478 1480 1482 1482 1483 1483 1483 1484 1484 1484 1485 1487 1488 1488 1489 1489 1490 1492 1493 1494 1496 1497 1497 1498 1501 1502 1502 1503 1504 1504 1505 1505
1489 1487 1485 1484 1482 1481 1481 1481 1480 1480 1479 1478 1477 1475 1474 1473 1472 1471 1470 1469 1468 1466 1465 1465 1464 1464 1464 1465 1465 1465 1464 1464 1465 1465 1464 1465 1465 1465 1465 1465 1465 1465 1465 1466 1466 1467 1467 1468 1468 1468 1469 1470 1471 1473 1475 1476 1477 1477 1477 1478 1478 1478 1479 1481 1482 1483 1483 1484 1485 1486 1487 1488 1489 1491 1492 1492 1493 1496 1497 1496 1498 1499 1500 1501 1501
1489 1487 1485 1484 1482 1482 1481 1480 1480 1480 1479 1478 1477 1476 1475 1474 1472 1471 1470 1469 1468 1467 1466 1465 1464 1464 1463 1463 1463 1463 1463 1463 1463 1463 1463 1463 1463 1463 1462 1462 1462 1462 1462 1462 1463 1463 1463 1463 1464 1464 1464 1465 1466 1468 1469 1470 1471 1471 1472 1473 1473 1472 1473 1476 1478 1478 1479 1479 1480 1481 1482 1483 1484 1486 1487 1488 1489 1491 1491 1491 1493 1494 1495 1495 1495
1489 1487 1486 1484 1483 1482 1481 1480 1480 1479 1479 1478 1477 1476 1475 1474 1472 1471 1470 1469 1468 1467 1466 1465 1465 1464 1463 1463 1463 1462 1462 1462 1462 1461 1461 1461 1460 1460 1460 1459 1459 1458 1458 1458 1458 1458 1458 1458 1459 1459 1459 1460 1461 1462 1463 1465 1465 1465 1467 1468 1467 1466 1468 1472 1474 1474 1474 1474 1474 1476 1477 1478 1480 1481 1482 1483 1484 1485 1486 1487 1488 1489 1489 1489 1490
1489 1488 1487 1485 1483 1482 1481 1481 1480 1479 1478 1478 1477 1476 1475 1474 1472 1471 1470 1469 1468 1467 1467 1466 1465 1464 1463 1463 1462 1462 1461 1461 1461 1460 1459 1459 1458 1458 1457 1456 1455 1454 1454 1453 1453 1453 1453 1454 1454 1455 1455 1455 1456 1457 1458 1459 1459 1460 1462 1462 1461 1462 1465 1468 1469 1469 1469 1468 1468 1470 1471 1473 1475 1476 1477 1478 1479 1480 1481 1482 1483 1484 1485 1485 1485
1490 1489 1487 1486 1484 1482 1481 1481 1480 1479 1479 1478 1477 1476 1474 1473 1472 1471 1470 1469 1468 1467 1467 1466 1465 1464 1464 1463 1462 1461 1460 1459 1459 1458 1458 1457 1456 1455 1454 1453 1451 1450 1449 1448 1447 1447 1447 1448 1448 1450 1450 1451 1451 1452 1452 1453 1454 1455 1456 1456 1457 1459 1462 1463 1463 1464 1464 1463 1463 1464 1465 1467 1469 1470 1472 1473 1474 1475 1476 1477 1478 1480 1480 1480 1480
1490 1489 1488 1486 1485 1483 1482 1481 1480 1480 1479 1478 1477 1476 1475 1473 1472 1471 1470 1469 1468 1467 1466 1466 1465 1464 1464 1463 1462 1461 1460 1458 1458 1457 1456 1455 1453 1452 1451 1450 1448 1446 1445 1444 1443 1442 1442 1442 1442 1443 1444 1444 1445 1446 1446 1448 1449 1449 1449 1451 1453 1456 1458 1458 1458 1458 1458 1457 1458 1458 1459 1461 1463 1465 1467 1469 1470 1470 1471 1472 1473 1475 1475 1476 1476
1490 1489 1488 1487 1486 1484 1483 1482 1481 1480 1479 1478 1477 1476 1475 1474 1472 1471 1470 1468 1467 1466 1465 1465 1464 1463 1462 1462 1461 1460 1459 1458 1456 1455 1454 1453 1452 1450 1449 1447 1445 1443 1441 1440 1439 1438 1437 1437 1437 1437 1438 1438 1439 1440 1440 1441 1442 1442 1443 1446 1449 1451 1452 1452 1452 1452 1452 1452 1453 1453 1454 1455 1458 1460 1462 1464 1466 1466 1466 1466 1468 1469 1470 1472 1472
1491 1490 1488 1487 1486 1485 1484 1483 1482 1481 1480 1478 1477 1476 1475 1473 1472 1470 1469 1468 1466 1465 1464 1463 1462 1462 1461 1460 1459 1458 1457 1456 1455 1453 1452 1451 1450 1449 1447 1445 1443 1441 1438 1436 1434 1432 1432 1432 1432 1432 1432 1432 1432 1433 1434 1435 1436 1437 1439 1441 1443 1445 1446 1446 1447 1447 1447 1447 1447 1447 1448 1450 1452 1454 1457 1460 1461 1461 1461 1461 1462 1464 1465 1466 1467
1491 1490 1489 1487 1486 1485 1484 1483 1482 1481 1480 1479 1477 1476 1475 1473 1472 1470 1469 1467 1466 1464 1463 1462 1461 1460 1459 1458 1457 1456 1455 1454 1452 1451 1450 1449 1448 1446 1445 1443 1441 1439 1436 1433 1430 1428 1427 1427 1427 1427 1427 1427 1427 1428 1428 1430 1431 1433 1435 1436 1437 1439 1439 1440 1441 1442 1442 1442 1442 1442 1443 1445 1447 1449 1452 1455 1456 1455 1455 1456 1457 1458 1459 1460 1461
1492 1491 1489 1488 1487 1486 1484 1483 1482 1481 1480 1479 1478 1476 1475 1474 1472 1471 1469 1468 1466 1464 1463 1462 1461 1459 1458 1457 1456 1454 1453 1452 1450 1449 1447 1446 1445 1443 1441 1440 1438 1436 1433 1430 1427 1425 1424 1424 1424 1424 1424 1424 1423 1424 1424 1426 1427 1428 1430 1431 1432 1433 1434 1435 1436 1437 1437 1437 1438 1438 1439 1441 1442 1445 1447 1449 1449 1450 1451 1452 1452 1452 1453 1454 1454
1492 1491 1490 1489 1487 1486 1485 1483 1482 1481 1480 1479 1478 1477 1476 1474 1473 1471 1470 1468 1466 1465 1463 1462 1460 1459 1458 1457 1455 1454 1452 1450 1449 1447 1445 1443 1442 1440 1438 1436 1434 1432 1430 1428 1425 1423 1422 1422 1422 1422 1421 1421 1421 1420 1421 1422 1423 1424 1425 1426 1427 1428 1429 1430 1431 1432 1432 1433 1433 1434 1435 1437 1438 1440 1441 1443 1444 1446 1447 1447 1447 1447 1447 1448 1448
1493 1492 1491 1489 1488 1487 1485 1484 1482 1481 1480 1479 1478 1478 1476 1475 1473 1472 1470 1468 1467 1465 1464 1462 1461 1459 1458 1456 1455 1453 1452 1450 1447 1445 1443 1441 1439 1437 1435 1433 1431 1429 1427 1425 1423 1421 1420 1420 1420 1420 1419 1418 1418 1418 1418 1418 1419 1420 1422 1423 1423 1423 1424 1425 1425 1426 1427 1428 1429 1430 1431 1433 1434 1435 1436 1437 1439 1441 1441 1442 1442 1441 1442 1443 1443
1493 1492 1491 1490 1489 1487 1486 1485 1483 1482 1481 1480 1479 1478 1477 1476 1474 1473 1471 1469 1468 1466 1465 1463 1462 1460 1458 1456 1454 1452 1451 1449 1447 1446 1444 1442 1439 1436 1434 1431 1428 1426 1424 1422 1420 1419 1419 1418 1418 1417 1417 1416 1416 1416 1416 1416 1417 1418 1419 1419 1419 1419 1420 1420 1420 1420 1422 1423 1424 1426 1427 1428 1429 1430 1431 1432 1433 1435 1435 1436 1436 1437 1437 1438 1437
1493 1492 1491 1490 1489 1488 1487 1486 1485 1484 1482 1481 1480 1479 1478 1477 1476 1474 1473 1471 1469 1468 1466 1464 1463 1461 1459 1458 1455 1453 1451 1449 1448 1447 1444 1442 1439 1437 1434 1431 1428 1426 1424 1422 1420 1418 1418 1417 1417 1416 1415 1415 1415 1414 1414 1415 1415 1415 1416 1416 1416 1416 1416 1415 1415 1416 1417 1418 1420 1421 1423 1424 1424 1425 1426 1426 1428 1429 1430 1430 1431 1431 1432 1432 1432
1493 1492 1491 1490 1489 1488 1487 1486 1485 1484 1483 1482 1481 1480 1479 1478 1477 1475 1474 1473 1471 1470 1468 1466 1464 1463 1461 1459 1457 1455 1453 1451 1449 1447 1444 1442 1439 1437 1434 1431 1428 1426 1424 1422 1421 1419 1418 1417 1416 1416 1415 1414 1413 1413 1413 1413 1413 1413 1413 1413 1413 1413 1413 1413 1412 1412 1413 1414 1415 1417 1418 1419 1419 1420 1421 1421 1423 1424 1425 1425 1426 1427 1427 1427 1428
1493 1492 1491 1490 1489 1488 1488 1487 1486 1485 1484 1483 1482 1481 1480 1479 1478 1477 1475 1474 1472 1471 1469 1467 1466 1464 1462 1460 1458 1456 1454 1452 1450 1447 1445 1442 1440 1437 1435 1433 1430 1428 1426 1424 1422 1420 1419 1418 1417 1416 1415 1414 1413 1413 1413 1413 1413 1412 1412 1412 1412 1411 1411 1411 1411 1411 1411 1412 1413 1414 1415 1415 1416 1417 1417 1417 1418 1420 1421 1421 1422 1422 1423 1423 1424
1492 1491 1491 1490 1489 1489 1488 1487 1486 1485 1484 1483 1482 1481 1480 1479 1478 1477 1476 1475 1473 1472 1470 1468 1467 1465 1463 1461 1459 1457 1455 1453 1451 1449 1447 1444 1442 1440 1438 1435 1433 1430 1428 1426 1423 1422 1421 1420 1419 1418 1417 1415 1415 1414 1414 1413 1413 1412 1412 1411 1411 1410 1410 1410 1410 1409 1409 1410 1411 1412 1412 1413 1413 1414 1414 1415 1415 1416 1417 1418 1418 1419 1419 1420 1420
1491 1491 1490 1490 1489 1489 1488 1487 1486 1485 1484 1483 1482 1481 1480 1479 1477 1476 1476 1475 1474 1472 1470 1469 1467 1466 1464 1462 1460 1458 1457 1455 1453 1451 1449 1446 1444 1442 1440 1438 1435 1432 1430 1427 1425 1424 1422 1421 1421 1420 1420 1418 1417 1416 1415 1414 1413 1413 1412 1411 1411 1410 1410 1410 1409 1409 1408 1409 1409 1410 1410 1411 1411 1411 1412 1412 1413 1413 1414 1414 1415 1415 1416 1416 1417
1490 1490 1489 1489 1489 1488 1487 1486 1485 1485 1484 1483 1482 1481 1480 1479 1478 1477 1475 1474 1473 1472 1471 1469 1468 1466 1465 1463 1461 1459 1458 1456 1454 1452 1450 1448 1446 1444 1442 1439 1436 1434 1431 1429 1428 1427 1425 1424 1423 1422 1422 1421 1420 1419 1417 1416 1415 1414 1413 1412 1411 1411 1411 1410 1410 1409 1408 1409 1409 1409 1409 1409 1409 1409 1410 1410 1410 1410 1410 1411 1411 1412 1413 1413 1413
1489 1489 1489 1488 1488 1487 1487 1486 1485 1484 1483 1483 1482 1481 1480 1479 1478 1477 1476 1474 1473 1472 1471 1469 1468 1467 1465 1464 1462 1460 1459 1457 1455 1453 1451 1449 1447 1445 1442 1439 1437 1435 1433 1432 1431 1429 1428 1427 1426 1424 1423 1423 1422 1421 1420 1418 1417 1416 1415 1414 1413 1412 1411 1411 1410 1409 1409 1408 1408 1408 1408 1408 1408 1407 1408 1408 1408 1408 1408 1408 1409 1409 1410 1410 1410
1488 1488 1488 1488 1487 1487 1486 1485 1484 1484 1483 1482 1482 1481 1480 1479 1478 1477 1475 1474 1473 1472 1471 1469 1468 1467 1465 1464 1462 1461 1459 1458 1457 1455 1453 1451 1449 1446 1443 1441 1439 1438 1436 1434 1433 1432 1431 1429 1428 1427 1426 1425 1423 1423 1422 1421 1420 1418 1417 1416 1415 1414 1413 1412 1411 1410 1409 1408 1407 1407 1407 1406 1406 1406 1406 1406 1406 1406 1406 1406 1406 1406 1407 1407 1407
1488 1487 1487 1487 1487 1486 1485 1485 1484 1483 1482 1482 1481 1481 1480 1479 1478 1477 1475 1474 1473 1472 1471 1469 1468 1467 1465 1464 1462 1461 1460 1459 1458 1456 1454 1452 1450 1447 1445 1444 1442 1440 1439 1437 1436 1434 1433 1432 1431 1429 1428 1427 1426 1425 1423 1422 1421 1420 1419 1418 1417 1416 1415 1413 1412 1411 1409 1408 1407 1407 1406 1405 1405 1404 1404 1403 1403 1404 1403 1403 1403 1404 1404 1403 1403
1487 1486 1486 1486 1486 1485 1485 1484 1483 1483 1482 1481 1481 1480 1480 1479 1478 1477 1476 1475 1473 1472 1471 1470 1468 1467 1465 1464 1462 1461 1459 1458 1457 1455 1454 1452 1451 1449 1448 1446 1445 1443 1442 1440 1439 1437 1436 1434 1433 1432 1431 1429 1428 1427 1425 1424 1423 1422 1420 1420 1418 1417 1416 1415 1413 1412 1411 1409 1408 1407 1406 1405 1404 1403 1403 1402 1402 1402 1401 1401 1401 1401 1401 1401 1400
1486 1486 1486 1485 1485 1485 1484 1484 1483 1482 1482 1481 1481 1480 1479 1479 1478 1477 1476 1475 1474 1472 1471 1470 1469 1467 1465 1464 1462 1461 1459 1458 1456 1455 1454 1453 1452 1450 1449 1448 1447 1445 1444 1442 1441 1440 1438 1437 1435 1434 1433 1431 1430 1429 1427 1426 1425 1423 1422 1421 1420 1418 1417 1416 1414 1413 1412 1411 1409 1408 1407 1406 1404 1404 1403 1402 1401 1401 1400 1400 1399 1399 1399 1399 1398
1485 1485 1485 1485 1484 1484 1484 1483 1483 1482 1481 1481 1480 1480 1479 1479 1478 1477 1476 1475 1474 1472 1471 1470 1469 1467 1466 1464 1463 1461 1460 1458 1457 1455 1454 1453 1452 1451 1450 1449 1448 1447 1445 1444 1443 1441 1440 1439 1437 1436 1434 1433 1432 1430 1429 1428 1427 1425 1424 1423 1421 1420 1418 1417 1415 1414 1413 1411 1410 1409 1407 1406 1405 1404 1403 1402 1401 1400 1400 1399 1398 1398 1397 1397 1397
1485 1485 1484 1484 1484 1483 1483 1483 1482 1482 1481 1481 1480 1479 1479 1478 1477 1477 1476 1474 1473 1472 1471 1470 1469 1467 1466 1465 1463 1462 1460 1459 1457 1456 1455 1453 1452 1451 1450 1449 1448 1447 1446 1445 1443 1442 1441 1440 1438 1437 1436 1434 1433 1432 1430 1429 1428 1426 1425 1424 1422 1421 1419 1418 1417 1415 1414 1412 1411 1409 1408 1407 1406 1405 1404 1403 1402 1401 1400 1399 1398 1397 1397 1396 1396
1484 1484 1483 1483 1483 1482 1482 1482 1481 1481 1480 1480 1479 1479 1478 1478 1477 1476 1475 1474 1473 1472 1471 1470 1469 1467 1466 1465 1463 1462 1461 1459 1458 1456 1455 1454 1452 1451 1450 1449 1448 1447 1446 1445 1444 1442 1441 1440 1439 1437 1436 1435 1433 1432 1431 1429 1428 1426 1425 1424 1422 1421 1420 1419 1417 1416 1415 1413 1412 1410 1409 1408 1406 1405 1404 1403 1402 1401 1400 1399 1398 1397 1396 1396 1395
1483 1483 1483 1482 1482 1481 1481 1481 1480 1480 1479 1479 1479 1478 1477 1477 1476 1475 1474 1474 1473 1472 1471 1469 1468 1467 1466 1465 1463 1462 1461 1459 1458 1456 1455 1453 1452 1451 1449 1448 1447 1446 1445 1444 1443 1442 1441 1439 1438 1437 1435 1434 1433 1432 1430 1429 1428 1426 1425 1424 1422 1421 1420 1418 1417 1416 1415 1413 1412 1411 1409 1408 1407 1406 1405 1404 1402 1401 1400 1399 1398 1397 1396 1396 1395
1482 1482 1482 1481 1481 1480 1480 1480 1479 1479 1478 1478 1477 1477 1476 1476 1475 1474 1473 1473 1472 1471 1470 1469 1468 1467 1466 1464 1463 1462 1461 1459 1458 1456 1455 1453 1452 1450 1449 1448 1446 1445 1444 1443 1442 1440 1439 1438 1437 1436 1434 1433 1432 1430 1429 1428 1427 1426 1424 1423 1422 1420 1419 1417 1416 1415 1414 1413 1412 1411 1409 1408 1407 1406 1405 1404 1402 1401 1400 1399 1398 1397 1396 1395 1394
1481 1481 1481 1480 1480 1480 1479 1479 1478 1478 1477 1477 1476 1476 1475 1475 1474 1473 1472 1471 1470 1469 1469 1468 1467 1466 1465 1464 1463 1461 1460 1459 1458 1456 1454 1453 1451 1450 1448 1447 1445 1444 1443 1442 1440 1439 1438 1436 1435 1434 1433 1432 1430 1429 1428 1427 1426 1425 1423 1422 1421 1419 1418 1417 1415 1414 1413 1412 1411 1410 1409 1408 1406 1405 1404 1403 1402 1401 1400 1399 1397 1396 1395 1394 1393
1479 1479 1479 1479 1479 1478 1478 1477 1477 1476 1476 1476 1475 1475 1474 1473 1472 1471 1470 1469 1468 1468 1466 1466 1465 1464 1463 1462 1461 1460 1459 1458 1457 1455 1454 1452 1451 1449 1448 1446 1444 1443 1442 1441 1439 1438 1437 1435 1434 1432 1431 1430 1428 1427 1426 1425 1424 1423 1422 1421 1420 1419 1417 1416 1415 1413 1412 1411 1410 1409 1407 1407 1405 1404 1403 1402 1401 1400 1399 1398 1397 1396 1395 1394 1393
1477 1477 1477 1477 1477 1477 1476 1476 1475 1475 1474 1474 1473 1472 1472 1471 1470 1469 1468 1467 1466 1465 1465 1464 1463 1462 1461 1460 1459 1458 1457 1456 1455 1454 1453 1451 1450 1448 1447 1445 1443 1442 1441 1439 1438 1437 1435 1434 1433 1431 1430 1428 1427 1425 1424 1423 1422 1421 1420 1419 1418 1417 1416 1415 1414 1412 1411 1410 1409 1408 1406 1405 1405 1404 1402 1401 1400 1399 1398 1398 1397 1396 1394 1393 1392
1475 1475 1475 1475 1475 1474 1474 1473 1473 1472 1472 1471 1470 1470 1469 1468 1467 1467 1466 1465 1464 1463 1462 1462 1461 1460 1459 1457 1456 1455 1454 1453 1452 1452 1450 1449 1448 1447 1445 1444 1442 1441 1439 1438 1436 1435 1434 1433 1431 1430 1428 1427 1425 1424 1423 1421 1421 1419 1418 1417 1416 1415 1414 1413 1412 1411 1410 1409 1408 1407 1405 1404 1404 1403 1402 1400 1400 1399 1398 1397 1396 1395 1394 1393 1392
1472 1471 1471 1471 1472 1471 1471 1471 1470 1470 1469 1469 1468 1467 1467 1466 1465 1464 1464 1463 1462 1461 1460 1459 1458 1457 1456 1455 1454 1453 1451 1450 1449 1448 1447 1446 1445 1444 1443 1442 1440 1439 1437 1436 1435 1433 1432 1431 1429 1428 1427 1425 1424 1423 1421 1420 1419 1418 1416 1415 1414 1413 1413 1412 1411 1410 1409 1408 1407 1406 1404 1403 1402 1402 1401 1400 1399 1398 1397 1396 1396 1395 1394 1393 1392
1469 1469 1469 1468 1468 1468 1468 1468 1467 1467 1467 1466 1465 1465 1464 1463 1463 1462 1461 1461 1460 1459 1458 1457 1456 1454 1453 1452 1451 1450 1449 1447 1446 1445 1444 1443 1442 1441 1440 1439 1438 1436 1435 1434 1432 1431 1430 1429 1427 1426 1425 1423 1422 1421 1419 1418 1417 1416 1415 1414 1412 1411 1411 1410 1409 1408 1407 1406 1405 1404 1403 1402 1402 1401 1400 1399 1398 1397 1397 1396 1395 1394 1393 1392 1391